Location: Auckland
(36.8670°S, 174.7670°E)
Time: 04:02:07
(UTC+12:00)

NOSS 2-1 (E) - Pass Details

Date: 01 May 2019
Orbit: 471 x 1733 km, 63.3° (Epoch: 21 May)

Event Time Altitude Azimuth Distance (km) Brightness Sun altitude
Rises 20:38:53 0° 211° (SSW) 4,669 8.5 -36.9°
Reaches altitude 10° 20:43:39 10° 192° (SSW) 3,445 7.5 -37.9°
Enters shadow 20:46:19 15° 175° (S) 2,920 7.0 -38.4°
